Regional Weather Roundup
Issued by NWS Wakefield, VA

Home | Current Version | Previous Version | Text Only | Print | Product List | Glossary On
Versions: 1 2 3 4 5 6 7 8 9 10 11 12 13 14 15 16 17 18 19 20 21 22 23 24 25 26 27 28 29 30 31 32 33 34 35 36 37 38 39 40 41 42 43 44 45 46 47 48 49 50
000
ASUS41 KAKQ 012310
RWRAKQ

REGIONAL WEATHER ROUNDUP
NATIONAL WEATHER SERVICE WAKEFIELD VA
700 PM EDT WED OCT 01 2014

Note: "fair" indicates few or no clouds below 12,000 feet with no
significant weather and/or obstructions to visibility. * = Denotes
station may not report precipitation (e.g., rain,snow,etc.),
thunder or fog.

VAZ042-051-052>054-056-020000-
NORTHERN VIRGINIA

CITY           SKY/WX    TMP DP  RH WIND       PRES   REMARKS
WASH NATIONAL  PTCLDY    73  60  63 NE6       30.02S
DULLES         MOCLDY    67  60  78 E3        30.03R
FORT BELVOIR   PTCLDY    66  63  87 CALM      30.03R
QUANTICO       MOCLDY    71  62  73 VRB7      30.03R
FREDERICKSBRG* CLOUDY    72  63  73 CALM      30.01R
STAFFORD*      PTCLDY    68  62  79 CALM      30.06R
WARRENTON      MOCLDY    69  66  92 CALM      30.02R
CULPEPER*      PTCLDY    68  63  83 CALM      30.03R
MANASSAS*      CLEAR     66  63  88 CALM      30.03R
LEESBURG*      CLEAR     68  63  83 CALM      30.04R
WINCHESTER     PTCLDY    64  61  88 CALM      30.04R
FRONT ROYAL*   CLOUDY    64  61  88 E3        30.03R
LURAY*         CLOUDY    68  63  83 N6        30.03R
$$

VAZ048-049-060>072-079>083-020000-
CENTRAL AND SOUTH CENTRAL VIRGINIA...AND NORTH CENTRAL NORTH CAROLINA

CITY           SKY/WX    TMP DP  RH WIND       PRES   REMARKS
RICHMOND       MOCLDY    70  64  81 E5        30.01R
CHESTERFIELD*  PTCLDY   N/A N/A N/A E3        30.02R
PETERSBURG*    CLOUDY    71  62  73 NE7       30.01R
HANOVER        PTCLDY    68  64  87 CALM      30.02R
TAPPAHANNOCK*  PTCLDY    69  58  68 CALM      30.02R
CHARLOTTSVILLE CLOUDY    69  62  78 N3        30.02R
ORANGE*        CLOUDY    68  63  83 CALM      30.04R
LOUISA*        CLOUDY    68  63  83 CALM      30.01R
FARMVILLE*     CLEAR     70  61  73 CALM      29.99R
CREWE*         CLEAR     66  64  91 CALM      30.00S
FORT PICKETT*  CLEAR     69  64  85 CALM      30.01R
LUNENBURG*     CLEAR     68  66  94 CALM      30.00S
SOUTH HILL*    CLEAR     66  66 100 CALM      30.05S FOG
LAWRENCEVILLE* CLEAR     67  66  95 CALM      29.99F
ROANOKE RAPIDS CLEAR     68  64  88 CALM      30.00S
RALEIGH        MOCLDY    70  63  78 CALM      30.01R
$$

VAZ088>098-020000-
SOUTHEAST VIRGINIA

CITY           SKY/WX    TMP DP  RH WIND       PRES   REMARKS
NORFOLK        PTCLDY    69  63  81 NE7       30.00R
VIRGINIA BEACH MOCLDY    71  62  73 NE7       29.99S
NORFOLK NAVAL  MOCLDY    71  63  75 NE7       30.02R
WEST POINT*    PTCLDY    70  62  75 CALM      30.02S
NEWPORT NEWS   PTCLDY    71  63  75 E6        30.01R
LANGLEY AFB    MOCLDY    68  65  90 NE7       30.01R
FORT EUSTIS    MOCLDY    71  71 100 E3        29.99R
WILLIAMSBURG*  CLEAR     70  64  83 CALM      30.02R
HR EXEC AP*    PTCLDY    68  61  77 NE5       30.02R
FRANKLIN*      CLEAR     70  63  78 E3        30.00R
WAKEFIELD      LGT RAIN  71  64  78 CALM      30.00R
$$

VAZ020-022-025-037-045-020000-
WEST CENTRAL AND SOUTHWEST VIRGINIA

CITY           SKY/WX    TMP DP  RH WIND       PRES   REMARKS
STAUNTON*      CLOUDY    70  58  67 CALM      30.04R
HOT SPRINGS VA MOCLDY    62  38  40 CALM      30.13R
LYNCHBURG      MOCLDY    67  63  87 CALM      30.03R
DANVILLE       CLOUDY    70  65  84 CALM      30.01R
SOUTH BOSTON*  NOT AVBL
MARTINSVILLE   MOCLDY    67  67 100 CALM      30.04S FOG
ROANOKE        PTCLDY    71  62  73 SE7       30.04R
BLACKSBURG     CLEAR     66  57  72 NW3       30.07R
DUBLIN*        PTCLDY    70  55  57 CALM      30.06S
MARION*        MOCLDY    67  56  68 W3        30.10R
HILLSVILLE*    PTCLDY    66  59  77 S3        30.08S
RICHLANDS*     PTCLDY    72  51  48 NW3       30.08R
WISE*          CLEAR     70  50  49 CALM      30.09S
ABINGDON*      PTCLDY    72  58  60 CALM      30.05S
$$

MDZ021>025-VAZ099-100-020000-
SOUTHERN MARYLAND AND THE DELMARVA PENINSULA

CITY           SKY/WX    TMP DP  RH WIND       PRES   REMARKS
PATUXENT RIVER PTCLDY    68  60  75 N7        30.02R
BAY BRIDGE APT   N/A     68  59  73 N3        30.02S
LEONARDTOWN    CLEAR     64  57  77 CALM      30.04R
DOVER          CLOUDY    67  60  78 NE7       30.01R
GEORGETOWN     CLOUDY    68  59  73 E8        30.02S
EASTON         PTCLDY    68  63  83 CALM      30.06R
CAMBRIDGE      CLEAR     66  61  82 CALM      30.01S
SALISBURY      CLEAR     68  58  70 N3        30.01R
OCEAN CITY     MOCLDY    66  61  84 NE6       30.01S
WALLOPS ISLAND CLEAR     68  62  81 NE6       30.02R
ACCOMACK*      PTCLDY    66  63  88 CALM      30.01R
$$

NCZ012>017-030>032-020000-
EASTERN NORTH CAROLINA

CITY           SKY/WX    TMP DP  RH WIND       PRES   REMARKS
ELIZABETH CITY CLEAR     69  63  81 NE8       30.00R
AHOSKIE*       CLEAR     68  65  89 CALM      30.00R
EDENTON*       PTCLDY    70  65  85 SE6       29.99S
CURRITUCK*     CLEAR     71  61  70 NE7       30.00S
KILL DEVIL HLS PTCLDY    69  65  85 NE7       29.98S
MANTEO         CLEAR     69  64  85 NE9       29.99S
CAPE HATTERAS  CLEAR     69  63  81 NE9       29.98S
TARBORO*       CLEAR     71  65  82 CALM      30.00S
GOLDSBORO      CLEAR     73  70  89 CALM      29.98R
WASHINGTON     CLEAR     69  65  86 CALM      30.00R
GREENVILLE     CLEAR     72  64  78 CALM      30.01S
NEW BERN       PTCLDY    74  64  71 N5        29.99S
WILMINGTON     CLEAR     75  66  73 CALM      29.97S
$$

VAZ048-020000-
ELSEWHERE

CITY           SKY/WX    TMP DP  RH WIND       PRES   REMARKS
HARRISBURG PA  PTCLDY    64  60  87 CALM      30.02S
BALTIMORE      PTCLDY    70  58  65 VRB3      30.02R
ANNAPOLIS      CLEAR     70  62  76 CALM      30.02R
ANDREWS AFB    CLEAR     66  60  81 E3        30.02S
WILMINGTON DE  PTCLDY    68  58  70 E6        30.04R
PHILADELPHIA   PTCLDY    66  57  72 E8        30.04R
WILDWOOD NJ*   CLOUDY    64  57  77 NE7       30.03R
ATLANTIC CITY  CLOUDY    64  60  87 N3        30.03S
HENDERSON NC   CLEAR     68  64  86 CALM      30.01R
GREENSBORO     MOCLDY    71  62  73 CALM      30.01R
ROCKY MOUNT    CLEAR     70  65  84 CALM      30.00S
FAYETTEVILLE   PTCLDY    75  67  76 NE3       29.99R
CHARLOTTE      PTCLDY    78  57  48 N3        30.00R
$$

VAZ100-020000-
MARINE

STATION/POSITION TIME  TEMP    WIND        PRES    WAVE   SWELL
                       AIR SEA DIR/SP/G            HT/PER HT/PER
                 (UTC) (F)     (DEG/KT/KT) (MB)    (FT/S) (FT/S)
44066 TX TWR #4  2300   66 70   10/ 21/ 25 1014.2R   7/ 6   2/13
CAPE MAY NJ      2300   67 74   40/  3/  6 1016.1S
LEWES DE         2300   68 71   70/ 11/ 12 1016.1S
15NM E FENWICK I 2300   67 70              1015.9R   4/ 7
OCEAN-CITY-INLET 2300   68 71   40/  3/  7 1015.9R
WACHAPREAGUE VA  2300   69 74   80/  8/ 11 1016.0S
THOMAS POINT MD  2300   71 72   10/  8/  8 1017.5R
COVE POINT MD    2300   70      20/  8/ 10 1016.2S
SOLOMONS ISLAND  2300      72                N/A
BISHOPS HEAD MD  2300   70 73   60/  9/ 11 1015.8S
PINEY POINT MD   2300           50/  5/  6   N/A
CAMBRIDGE MD     2300   71 71   60/  4/  5 1016.1R
LEWISETTA VA     2300   70 72   40/  6/  8 1015.9R
RAPPAHANNOCK LGT 2300           10/ 11/ 12 1016.5R
YORK RVR RNG VA  2300   70     190/  3/  6 1015.6R
YORKTOWN VA      2300   71 74   70/ 11/ 12 1015.5F
DOMINION TERM VA 2300   71      50/  7/  9 1015.9R
KIPTOPEKE VA     2300      76   60/  3/  4   N/A
CHES BAY BRIDGE  2300   70 73   50/ 10/ 12 1015.5R
CHESAPEAKE LGHT  2200   69      40/ 11/ 12 1016.3R
WILLOUBY STN VA  2300   70      40/  8/  9 1014.7S
S CRANEY ISL VA  2300           30/  7/  9 1015.6R
64NM E OF VA BCH 2300   69 71   10/ 14/ 17 1015.0R   5/ 7   2/12
DUCK PIER NC     2300   71 73   40/ 13/ 14 1014.8R
OREGON INLET NC  2300   70 74   10/  8/ 12 1015.3S
HATTERAS NC      2300   71 75   20/ 14/ 17 1015.5R
DIAMOND SHLS NC  2300   71     360/ 17/ 19 1014.8R   2/ 7   2/ 7
CAPE LOOKOUT NC  2200   74      50/ 11/ 13 1014.7R
$$



USA.gov is the U.S. government's official web portal to all federal, state and local government web resources and services.